Zurück zum Katalog

SL-12 DEB

AktivMEO
NORAD 20044·DEBRIS·🇷🇺 Russia

Gestartet May 31, 1989 von Baikonur Cosmodrome

Loading…

Nächste Überflüge (nächste 24 Stunden)

TLE

AlterndSource: Space-Track

Epoche: Aug 29, 2026, 04:27 UTC

1 20044U 89039F   26241.18542560 -.00000015  00000-0  00000+0 0  9991
2 20044  64.8852 308.0084 0022669 212.7885 190.6375  2.13204897288214

Verfolge SL-12 DEB in Echtzeit mit AllMySat

Download on the App Store